www.pogodaiklimat.ru

Погода и климат >> Архив погоды >> Украина >> Бердянск


ПОГОДА в Бердянске

  • Прогноз погоды в Бердянске
  • Монитор погоды в Бердянске

АРХИВ ПОГОДЫ в Бердянске

Время (UTC), дата Ветер
(напр.,м/с)
 
Видим.   Явления Облачность Т
(С)
Тd
(С)
f
(%)
Тe
(С)
Тes
(С)
Комфортность P
(гПа)
Po
(гПа)
Тmin
(С)
Tmax
(С)
R
(мм)
R24
(мм)
S
(см)
12 12.08 ЮЗ 4 26 км 3/3 1000 м
[Cu med, cong]
+27.3 +20.0 64 +33 +39 очень
душно
1017.9 1017.7
15 12.08 З 2 24 км 1/1 1000 м
[Cu med, cong]
+27.5 +19.7 62 +33 +35 очень
душно
1017.7 1017.5
18 12.08 З 2 10 км ясно +25.0 +21.4 80 +32 +32 очень
душно
1018.1 1017.9 +27.8
21 12.08 СВ 2 10 км ясно +23.0 +18.9 78 +29 +29 очень
душно
1018.1 1017.9
00 13.08 В 3 10 км ясно +21.5 +17.4 77 +26 +26 душно 1018.3 1018.1
03 13.08 В 2 18 км ясно +22.8 +17.5 72 +28 +28 душно 1018.7 1018.5
06 13.08 В 3 27 км ясно +25.7 +17.7 61 +30 +36 душно 1019.6 1019.4 +21.4
09 13.08 ЮВ 4 28 км ясно +16.4 +16 +26 1019.7 1019.5
12 13.08 В 4 30 км ясно +26.8 +15.7 51 +30 +37 душно 1018.8 1018.6
15 13.08 ЮВ 4 26 км ясно +27.0 +15.8 50 +30 +31 душно 1017.3 1017.1
18 13.08 В 3 10 км ясно +23.7 +15.4 60 +27 +27 жарко 1016.8 1016.6 +27.6
21 13.08 В 4 10 км ясно +22.7 +16.1 66 +27 +27 душно 1016.5 1016.3
00 14.08 В 3 10 км ясно +21.0 +15.3 70 +25 +25 комфорт 1016.2 1016.0
03 14.08 В 3 17 км ясно +20.2 +15.9 76 +23 +23 комфорт 1016.0 1015.8
06 14.08 В 5 20 км ясно +25.3 +17.8 63 +30 +33 душно 1015.9 1015.7 +19.8
09 14.08 СВ 5 22 км ясно +27.4 +17.8 56 +32 +40 очень
душно
1014.7 1014.5
12 14.08 В 7 25 км ясно +28.4 +17.4 51 +32 +35 душно 1013.2 1013.0
15 14.08 В 5 25 км ясно +29.4 +17.4 48 +33 +34 душно 1011.6 1011.4
18 14.08 В 6 10 км ясно +26.4 +18.1 60 +31 +31 душно 1010.8 1010.6 +29.8
21 14.08 В 5 10 км ясно +25.6 +16.9 59 +29 +29 душно 1010.2 1010.0
00 15.08 В 4 10 км ясно +24.6 +15.8 58 +28 +28 душно 1009.4 1009.2
03 15.08 В 4 18 км ясно +22.4 +15.2 64 +26 +26 жарко 1009.2 1009.0
06 15.08 В 6 23 км 3/0
[Ci]
+26.2 +15.6 52 +29 +32 жарко 1007.9 1007.7 +21.5
09 15.08 В 6 27 км 5/0
[Ci]
+27.0 +14.3 46 +29 +35 жарко 1007.8 1007.6
12 15.08 В 3 30 км 8/0
[Ci]
+28.0 +14.9 45 +31 +38 душно 1006.9 1006.7
15 15.08 З 2 35 км 6/0
[Ci]
+28.2 +15.3 45 +31 +32 душно 1006.3 1006.1
18 15.08 СЗ 2 10 км 8/0
[Ac und Ci sp]
+25.6 +16.2 56 +29 +29 душно 1006.5 1006.3 +29.3
21 15.08 СВ 1 10 км 9/0
[Ac und]
+25.8 +14.0 48 +28 +28 жарко 1006.1 1005.9
00 16.08 СЗ 4 10 км 10/0
[Ac und]
+24.0 +14.0 54 +26 +26 жарко 1006.1 1005.9
03 16.08 С 2 13 км 9/0
[Ac und Ci]
+23.2 +13.0 53 +26 +26 жарко 1006.0 1005.8
06 16.08 СЗ 5 14 км 10/3 1000 м
[Cu hum Ac und Ci sp]
+24.2 +14.7 55 +27 +28 жарко 1006.2 1006.0 +23.0
09 16.08 С 3 16 км 10/0
[Ac As]
+26.0 +15.7 53 +29 +33 душно 1007.0 1006.8
12 16.08 З 3 22 км 8/0
[Ac trans Ci fib]
+28.8 +19.3 56 +34 +40 очень
душно
1007.0 1006.8
18 16.08 З 2 10 км слаб. ливневой дождь 10/5 600 м
[Cb cap Ac As]
+25.5 +20.5 74 +32 +32 очень
душно
1007.9 1007.7 +30.2 0.0
21 16.08 Ю 3 10 км слаб. дождь 10/3 300 м
[Frnb Ac As]
+24.0 +19.5 76 +29 +29 душно 1008.5 1008.3
00 17.08 СВ 1 10 км {ливн. осадки, дождь} 10/0
[Ac As]
+23.2 +19.1 78 +30 +30 очень
душно
1008.0 1007.8
03 17.08 З 6 12 км 10/0
[Ac As]
+24.1 +20.1 78 +30 +30 очень
душно
1008.0 1007.8
06 17.08 СЗ 1 12 км в посл. час гроза {ливн. осадки} 10/3 600 м
[Cb cap Ac As]
+21.0 +16.7 76 +26 +28 душно 1009.1 1008.9 +20.3 2
12 17.08 З 3 16 км 3/3 600 м
[Cu med, cong]
+26.5 +17.1 56 +30 +37 душно 1009.9 1009.7
18 17.08 СЗ 3 10 км 3/0
[Ac lent]
+21.0 +12.7 59 +24 +24 комфорт 1010.8 1010.6 +26.9
00 18.08 С 4 10 км 3/0
[Ac trans]
+17.4 +12.7 74 +17 +17 1011.3 1011.1
06 18.08 С 3 25 км 9/0
[Ci]
+19.9 +13.8 68 +22 +27 комфорт 1011.8 1011.6 +16.1
12 18.08 ЮЗ 3 26 км 3/1 600 м
[Cu med, cong Ac cuf Ci fib]
+25.3 +15.1 53 +28 +35 жарко 1011.7 1011.5
18 18.08 С 3 10 км 10/0
[Ac und]
+23.6 +13.7 54 +26 +26 жарко 1013.2 1013.0 +26.2
06 19.08 СВ 4 20 км 6/0
[Ac und]
+20.6 +14.7 69 +23 +26 комфорт 1016.4 1016.2 +17.7

 

Местоположение метеостанции Бердянск (Запорожская область, Украина): широта 46.75 долгота 36.78 высота над уровнем моря 2 м.

В архиве по умолчанию представлена погода в Бердянске за последнюю неделю. Архивные данные за месяц целиком и за предыдущие месяцы, начиная с января 2011 года, Вы можете получить, выбрав интересующий диапазон дат из раскрывающегося списка и нажав кнопку "Ввод!".


*Определитесь, кто Вы:
робот инопланетянин человек

Внимание! Время в таблицах - всемирное. Для получения местного времени необходимо прибавить поправку, которая равна 2 ч.

Смотрите также архив погоды в соседних городах и на ближайших метеорологических станциях:

Погода в Мариуполе (Донецкая область, Украина) (63 км)
Погода в Ботиево (Запорожская область, Украина) (71 км)
Погода в Должанке (Краснодарский край, Россия) (73 км)
Погода в Кирилловке (Запорожская область, Украина) (73 км)
Погода в Волновахе (Донецкая область, Украина) (106 км)
Погода в Мелитополе (Запорожская область, Украина) (108 км)
Погода в Гуляйполе (Запорожская область, Украина) (110 км)
Погода в Ейске (Краснодарский край, Россия) (114 км)
Погода в Пришибе (Запорожская область, Украина) (124 км)
Погода в Приморско-Ахтарске (Краснодарский край, Россия) (132 км)

Пояснения к столбцам:

Ветер - указаны скорость ветра в м/с - средняя за 10 мин, порывы в срок и между сроками (в фигурных скобках) и направление, откуда дует ветер: С - северный, СВ - северо-восточный, В - восточный, ЮВ - юго-восточный, Ю - южный, ЮЗ - юго-западный, З - западный, СЗ - северо-западный.
Видимость - горизонтальная дальность видимости в метрах или километрах. При видимости от 1 до 10 км при отсутствии осадков обычно наблюдается дымка, при ухудшении видимости до 1 км и менее - туман. В сухую погоду видимость может ухудшаться дымом, пылью или мглою.
Явления - указаны атмосферные явления, наблюдавшиеся в срок или в последний час перед сроком; фигурными скобками обозначены явления, наблюдавшиеся между сроками (за 1-3 часа до срока); квадратными скобками обозначены град или гололедные отложения с указанием их диаметра в мм.
Облачность - указаны через наклонную черту общая и нижняя облачность в баллах и высота нижней границы облаков в метрах; квадратными скобками обозначены формы облаков: Ci - перистые, Cs - перисто-слоистые, Cc - перисто-кучевые, Ac - высококучевые, As - высокослоистые, Sc - слоисто-кучевые, Ns - слоисто-дождевые, Cu - кучевые, Cb - кучево-дождевые. Подробнее классификацию облаков см. в Атласе облаков (PDF).
T - Температура воздуха - температура, измеренная на высоте 2 м над землей.
Td - Температура точки росы - температура, при понижении до которой содержащийся в воздухе водяной пар достигнет насыщения.
f - Относительная влажность воздуха - влажноcть воздуха, измеренная на высоте 2 м над землей.
Te - Эффективная температура - температура, которую ощущает одетый по сезону человек в тени. Характеристика душности погоды. При расчете учитывается влияние влажности воздуха и скорости ветра на теплоощущения человека.
Tes - Эффективная температура на солнце - температура, которую ощущает человек, с поправкой на солнечный нагрев. Характеристика знойности погоды. Зависит от высоты солнца над горизонтом, облачности и скорости ветра. Ночью, в пасмурную погоду, а также при ветре 12 м/с и более поправка равна нулю.
P - Атмосферное давление - приведенное к уровню моря атмосферное давление.
Po - Атмосферное давление - измеренное на уровне метеостанции атмосферное давление.
Tmin - Минимальная температура - минимум температуры воздуха на высоте 2 м над землей.
Tmax - Максимальная температура - максимум температуры воздуха на высоте 2 м над землей.
R - Количество осадков - Количество выпавших осадков за период времени, мм. При наведении курсора мыши на число - период времени, за который выпало указанное количество осадков.
R24 - Количество осадков - Количество выпавших осадков за 24 часа, мм.
S - Снежный покров - Высота снежного покрова, см. При наведении курсора мыши на число - состояние снежного покрова и степень покрытия местности в баллах.